This demonstration page uses our WeatherBlox Daily Observations layout. Learn more.

Left ArrowRight Arrow

39.01783, -85.05884

Hourly Observations for July 27, 2020

Temp ( °F °C ) Dew Point ( °F °C ) Humidity (%) Winds ( mph kmh ) Pressure ( in mb ) Visibility ( mi km ) Precip ( " mm )
12:52 am 00:52 Clear 77 25 71 21.7 82 82 SSW 8 13 30.01 1016 10 16 0.00 0.00
1:52 am 01:52 Clear 75 23.9 71 21.7 88 88 SW 8 13 30.01 1016 10 16 0.00 0.00
2:52 am 02:52 Clear 74 23.3 71 21.7 91 91 SW 6 9 30.00 1016 10 16 0.00 0.00
3:52 am 03:52 Clear 74 23.3 71 21.7 91 91 SW 6 9 29.99 1016 10 16 0.00 0.00
4:52 am 04:52 Clear 73 22.8 70 21.1 90 90 SSW 7 11 29.99 1016 10 16 0.00 0.00
5:52 am 05:52 Mostly Clear 73 22.8 70 21.1 90 90 SW 6 9 29.99 1016 10 16 0.00 0.00
6:52 am 06:52 Mostly Sunny 73 22.8 70 21.1 90 90 SSW 6 9 29.99 1016 7 11 0.00 0.00
7:52 am 07:52 Sunny 75 23.9 71 21.7 88 88 SW 8 13 29.99 1016 10 16 0.00 0.00
8:52 am 08:52 Sunny 78 25.6 72 22.2 82 82 SW 12 19 29.99 1016 10 16 0.00 0.00
9:52 am 09:52 Mostly Sunny 81 27.2 73 22.8 77 77 SW 9 15 29.99 1016 10 16 0.00 0.00
10:52 am 10:52 Mostly Sunny 84 28.9 73 22.8 70 70 SW 10 17 29.98 1015 10 16 0.00 0.00
11:52 am 11:52 Mostly Cloudy 86 30 73 22.8 65 65 SW 12 19 29.98 1015 10 16 0.00 0.00
12:52 pm 12:52 Mostly Cloudy 88 31.1 73 22.8 61 61 WSW 14 22 29.96 1015 10 16 0.00 0.00
1:34 pm 13:34 Partly Cloudy with Nearby Thunderstorms 89 31.7 73 22.8 59 59 WSW 10 17 29.91 1013 10 16 0.00 0.00
1:42 pm 13:42 Mostly Cloudy with Thunderstorms 90 32.2 74 23.3 59 59 SW 9 15 29.91 1013 10 16 0.00 0.00
1:52 pm 13:52 Mostly Cloudy with Thunderstorms 86 30 72 22.2 63 63 SW 13 20 29.94 1014 9 14 0.00 0.00
2:06 pm 14:06 Cloudy with Thunderstorms 73 22.8 69 20.6 87 87 W 15 24 29.95 1014 3 5 0.02 0.51
2:14 pm 14:14 Cloudy with Strong Thunderstorms 73 22.8 68 20 84 84 W 6 9 29.95 1014 4 6 0.05 1.27
2:24 pm 14:24 Mostly Cloudy with Thunderstorms 74 23.3 67 19.4 79 79 SSW 12 19 29.94 1014 8 13 0.07 1.78
2:40 pm 14:40 Mostly Cloudy with Light Rain 74 23.3 68 20 82 82 S 10 17 29.93 1013 10 16 0.07 1.78
2:52 pm 14:52 Mostly Cloudy 74 23.3 69 20.6 85 85 S 6 9 29.93 1014 10 16 0.07 1.78
3:52 pm 15:52 Mostly Cloudy 81 27.2 71 21.7 72 72 S 8 13 29.89 1012 10 16 0.00 0.00
4:52 pm 16:52 Mostly Cloudy 88 31.1 74 23.3 63 63 WSW 8 13 29.89 1012 10 16 0.00 0.00
5:52 pm 17:52 Cloudy 86 30 73 22.8 65 65 WSW 8 13 29.89 1012 10 16 0.00 0.00
6:11 pm 18:11 Cloudy with Thunderstorms 86 30 72 22.2 63 63 WSW 10 17 29.90 1012 10 16 0.00 0.00
6:29 pm 18:29 Cloudy with Thunderstorms 74 23.3 69 20.6 85 85 WNW 17 28 29.96 1014 3 4 0.00 0.00
6:38 pm 18:38 Cloudy with Strong Thunderstorms 73 22.8 69 20.6 87 87 NW 20 31 29.95 1014 4 6 0.08 2.03
6:46 pm 18:46 Cloudy with Nearby Thunderstorms 73 23 70 21 89 89 NW 15 24 29.94 1014 9 14 0.12 3.05
6:52 pm 18:52 Cloudy with Nearby Thunderstorms 73 22.8 69 20.6 87 87 NW 15 24 29.94 1014 10 16 0.12 3.05
7:06 pm 19:06 Cloudy 72 22.2 68 20 87 87 WNW 10 17 29.94 1014 10 16 0.00 0.00
7:52 pm 19:52 Cloudy with Light Rain 72 22.2 69 20.6 91 91 SSW 3 6 29.93 1014 8 13 0.02 0.51
8:52 pm 20:52 Cloudy 72 22.2 70 21.1 94 94 S 6 9 29.93 1013 10 16 0.00 0.00
9:52 pm 21:52 Cloudy 72 22.2 69 20.6 91 91 SSW 6 9 29.91 1013 10 16 0.00 0.00
10:52 pm 22:52 Cloudy 72 22.2 69 20.6 91 91 SW 6 9 29.92 1013 10 16 0.00 0.00
11:52 pm 23:52 Cloudy 72 22.2 69 20.6 91 91 WSW 5 7 29.92 1013 10 16 0.00 0.00

Powered by AerisWeather